Zurück zum Katalog

THOR AGENA B DEB

AktivPO
NORAD 511·DEBRIS·🇺🇸 United States

Gestartet Sep 29, 1962 von Vandenberg Space Force Base

Loading…

Nächste Überflüge (nächste 24 Stunden)

TLE

AktuellSource: Space-Track

Epoche: Sep 14, 2026, 07:41 UTC

1 00511U 62049D   26257.32060480  .00000058  00000-0  56287-4 0  9998
2 00511  80.4249 103.4989 0032077 106.8270  13.0376 13.68575738191771

Verfolge THOR AGENA B DEB in Echtzeit mit AllMySat

Download on the App Store